• In Netherlands
  • List of Countries
  • For 7 days
  • Water Temperature
  • Satellite Maps
  • Weather Map
  • Weather Widgets
  • user-avatar
    Login

    Hourly Weather Ischgl

    Today, 20 October, Friday

    Time Temperature Precipitation Wind Pressure Humidity
    00:00 +2°C° 0 mm 2 mps 574 mmHg 63%
    01:00 +1°C° 0 mm 3 mps 574 mmHg 67%
    02:00 +1°C° 0 mm 3 mps 574 mmHg 69%
    03:00 +1°C° 0 mm 2 mps 574 mmHg 72%
    04:00 +1°C° 0 mm 2 mps 574 mmHg 74%
    05:00 +1°C° 0 mm 2 mps 574 mmHg 75%
    06:00 +1°C° 0 mm 2 mps 574 mmHg 75%
    07:00 +1°C° 0 mm 2 mps 574 mmHg 74%
    08:00 +3°C° 0 mm 2 mps 575 mmHg 64%
    09:00 +6°C° 0 mm 1 mps 577 mmHg 54%
    10:00 +9°C° 0 mm 1 mps 578 mmHg 45%
    11:00 +10°C° 0 mm 1 mps 578 mmHg 42%
    12:00 +10°C° 0 mm 1 mps 579 mmHg 39%
    13:00 +11°C° 0 mm 1 mps 579 mmHg 36%
    14:00 +10°C° 0 mm 1 mps 579 mmHg 41%
    15:00 +10°C° 0 mm 1 mps 578 mmHg 46%
    16:00 +9°C° 0 mm 1 mps 578 mmHg 51%
    17:00 +7°C° 0 mm 1 mps 577 mmHg 60%
    18:00 +4°C° 0 mm 1 mps 576 mmHg 69%
    19:00 +1°C° 0 mm 0 mps 575 mmHg 77%
    20:00 +2°C° 0 mm 1 mps 575 mmHg 76%
    21:00 +2°C° 0 mm 1 mps 575 mmHg 74%
    22:00 +2°C° 0 mm 1 mps 575 mmHg 72%
    23:00 +2°C° 0 mm 1 mps 575 mmHg 70%

    Tomorrow, 21 October, Saturday

    Time Temperature Precipitation Wind Pressure Humidity
    00:00 +2°C° 0 mm 1 mps 575 mmHg 68%
    01:00 +2°C° 0 mm 1 mps 575 mmHg 66%
    02:00 +2°C° 0 mm 1 mps 575 mmHg 65%
    03:00 +1°C° 0 mm 1 mps 575 mmHg 64%
    04:00 +1°C° 0 mm 1 mps 575 mmHg 64%
    05:00 +1°C° 0 mm 1 mps 575 mmHg 62%
    06:00 +2°C° 0 mm 1 mps 575 mmHg 61%
    07:00 +2°C° 0 mm 1 mps 575 mmHg 59%
    08:00 +4°C° 0 mm 1 mps 576 mmHg 54%
    09:00 +5°C° 0 mm 0 mps 578 mmHg 48%
    10:00 +7°C° 0 mm 0 mps 579 mmHg 43%
    11:00 +9°C° 0 mm 1 mps 579 mmHg 42%
    12:00 +10°C° 0 mm 1 mps 579 mmHg 41%
    13:00 +11°C° 0 mm 1 mps 579 mmHg 39%
    14:00 +10°C° 0 mm 1 mps 579 mmHg 45%
    15:00 +9°C° 0 mm 1 mps 578 mmHg 52%
    16:00 +9°C° 0 mm 1 mps 577 mmHg 58%
    17:00 +7°C° 0 mm 1 mps 577 mmHg 65%
    18:00 +5°C° 0 mm 1 mps 576 mmHg 73%
    19:00 +3°C° 0 mm 1 mps 575 mmHg 81%
    20:00 +2°C° 0 mm 1 mps 575 mmHg 83%
    21:00 +2°C° 0 mm 1 mps 575 mmHg 85%
    22:00 +1°C° 0 mm 1 mps 575 mmHg 88%
    23:00 +1°C° 0.3 mm 1 mps 575 mmHg 90%

    Day after tomorrow, 22 October, Sunday

    Time Temperature Precipitation Wind Pressure Humidity
    00:00 +1°C° 0.3 mm 1 mps 575 mmHg 92%
    01:00 +1°C° 0.3 mm 1 mps 574 mmHg 94%
    02:00 +1°C° 0.5 mm 1 mps 574 mmHg 94%
    03:00 +1°C° 0.5 mm 1 mps 574 mmHg 94%
    04:00 +1°C° 0.5 mm 1 mps 574 mmHg 95%
    05:00 0°C° 1 mm 1 mps 573 mmHg 95%
    06:00 -2°C° 1 mm 2 mps 573 mmHg 95%
    07:00 -2°C° 1 mm 2 mps 573 mmHg 95%
    08:00 -2°C° 1.2 mm 2 mps 573 mmHg 94%
    09:00 -2°C° 1.2 mm 2 mps 573 mmHg 94%
    10:00 -2°C° 1.2 mm 2 mps 573 mmHg 93%
    11:00 -3°C° 1 mm 2 mps 572 mmHg 93%
    12:00 -4°C° 1 mm 3 mps 572 mmHg 92%
    13:00 -4°C° 1 mm 3 mps 571 mmHg 92%
    14:00 -4°C° 0.8 mm 3 mps 571 mmHg 92%
    15:00 -5°C° 0.8 mm 3 mps 571 mmHg 92%
    16:00 -5°C° 0.8 mm 3 mps 571 mmHg 91%
    17:00 -5°C° 0.5 mm 3 mps 571 mmHg 92%
    18:00 -6°C° 0.5 mm 3 mps 571 mmHg 93%
    19:00 -6°C° 0.5 mm 3 mps 571 mmHg 94%
    20:00 -7°C° 0.4 mm 3 mps 571 mmHg 94%
    21:00 -7°C° 0.4 mm 3 mps 572 mmHg 95%
    22:00 -7°C° 0.4 mm 3 mps 572 mmHg 95%
    23:00 -7°C° 0.4 mm 3 mps 572 mmHg 95%

    23 October, Monday

    Time Temperature Precipitation Wind Pressure Humidity
    00:00 -7°C° 0.4 mm 2 mps 572 mmHg 95%
    01:00 -7°C° 0.4 mm 2 mps 572 mmHg 95%
    02:00 -7°C° 0.4 mm 2 mps 571 mmHg 94%
    03:00 -7°C° 0.4 mm 2 mps 571 mmHg 94%
    04:00 -7°C° 0.4 mm 2 mps 571 mmHg 94%
    05:00 -7°C° 0.7 mm 2 mps 571 mmHg 93%
    06:00 -7°C° 0.7 mm 2 mps 571 mmHg 93%
    07:00 -7°C° 0.7 mm 2 mps 571 mmHg 93%
    08:00 -6°C° 1.1 mm 2 mps 571 mmHg 92%
    09:00 -6°C° 1.1 mm 2 mps 572 mmHg 92%
    10:00 -5°C° 1.1 mm 2 mps 572 mmHg 91%
    11:00 -5°C° 0.9 mm 2 mps 572 mmHg 91%
    12:00 -5°C° 0.9 mm 2 mps 572 mmHg 90%
    13:00 -5°C° 0.9 mm 3 mps 572 mmHg 90%
    14:00 -4°C° 0.8 mm 2 mps 572 mmHg 90%
    15:00 -4°C° 0.8 mm 2 mps 572 mmHg 91%
    16:00 -4°C° 0.8 mm 2 mps 573 mmHg 92%
    17:00 -5°C° 0.7 mm 2 mps 573 mmHg 93%
    18:00 -5°C° 0.7 mm 2 mps 573 mmHg 94%
    19:00 -5°C° 0.7 mm 2 mps 573 mmHg 95%
    20:00 -5°C° 0.9 mm 2 mps 573 mmHg 95%
    21:00 -5°C° 0.9 mm 2 mps 573 mmHg 95%
    22:00 -5°C° 0.9 mm 2 mps 574 mmHg 95%
    23:00 -5°C° 1 mm 2 mps 574 mmHg 95%

    24 October, Tuesday

    Time Temperature Precipitation Wind Pressure Humidity
    00:00 -5°C° 1 mm 2 mps 574 mmHg 95%
    01:00 -5°C° 1 mm 2 mps 574 mmHg 95%
    02:00 -5°C° 1.2 mm 2 mps 574 mmHg 95%
    03:00 -4°C° 1.2 mm 2 mps 574 mmHg 95%
    04:00 -4°C° 1.2 mm 2 mps 574 mmHg 95%
    05:00 -4°C° 1.1 mm 2 mps 574 mmHg 95%
    06:00 -4°C° 1.1 mm 2 mps 574 mmHg 95%
    07:00 -4°C° 1.1 mm 2 mps 575 mmHg 95%
    08:00 -3°C° 0.4 mm 2 mps 575 mmHg 95%
    09:00 -2°C° 0.4 mm 2 mps 576 mmHg 95%
    10:00 -1°C° 0.4 mm 2 mps 576 mmHg 95%
    11:00 -1°C° 0 mm 2 mps 577 mmHg 95%
    12:00 -1°C° 0 mm 2 mps 577 mmHg 94%
    13:00 +1°C° 0 mm 2 mps 577 mmHg 94%
    14:00 +1°C° 0 mm 2 mps 577 mmHg 94%
    15:00 -1°C° 0 mm 2 mps 577 mmHg 95%
    16:00 -1°C° 0 mm 2 mps 577 mmHg 95%
    17:00 -2°C° 0 mm 2 mps 576 mmHg 95%
    18:00 -4°C° 0 mm 2 mps 576 mmHg 96%
    19:00 -5°C° 0 mm 2 mps 576 mmHg 96%
    20:00 -6°C° 0 mm 2 mps 576 mmHg 91%
    21:00 -6°C° 0 mm 2 mps 576 mmHg 86%
    22:00 -6°C° 0 mm 2 mps 576 mmHg 80%
    23:00 -6°C° 0 mm 2 mps 576 mmHg 74%

    25 October, Wednesday

    Time Temperature Precipitation Wind Pressure Humidity
    00:00 -6°C° 0 mm 2 mps 576 mmHg 67%
    01:00 -6°C° 0 mm 2 mps 576 mmHg 61%
    02:00 -6°C° 0 mm 2 mps 576 mmHg 56%
    03:00 -6°C° 0 mm 2 mps 576 mmHg 52%
    04:00 -5°C° 0 mm 2 mps 576 mmHg 48%
    05:00 -5°C° 0 mm 2 mps 576 mmHg 46%
    06:00 -5°C° 0 mm 2 mps 576 mmHg 45%
    07:00 -4°C° 0 mm 2 mps 577 mmHg 43%
    08:00 0°C° 0 mm 1 mps 578 mmHg 53%
    09:00 +2°C° 0 mm 1 mps 579 mmHg 64%
    10:00 +4°C° 0 mm 1 mps 580 mmHg 74%
    11:00 +5°C° 0 mm 1 mps 580 mmHg 75%
    12:00 +6°C° 0 mm 1 mps 580 mmHg 77%
    13:00 +5°C° 0 mm 0 mps 581 mmHg 78%
    14:00 +6°C° 0 mm 1 mps 580 mmHg 75%
    15:00 +5°C° 0 mm 1 mps 580 mmHg 72%
    16:00 +5°C° 0 mm 1 mps 580 mmHg 70%
    17:00 +3°C° 0 mm 1 mps 579 mmHg 66%
    18:00 +2°C° 0 mm 1 mps 579 mmHg 62%
    19:00 +1°C° 0 mm 1 mps 578 mmHg 58%
    20:00 -1°C° 0 mm 2 mps 578 mmHg 56%
    21:00 -1°C° 0 mm 2 mps 579 mmHg 54%
    22:00 -1°C° 0 mm 2 mps 579 mmHg 53%
    23:00 -1°C° 0 mm 2 mps 579 mmHg 53%
    Show more